Location: Fort Wayne
(41.1310°N, 85.1290°W)
Time: 03:52:39
(UTC-04:00)

Courier 1B Rocket - All Passes

Search period start: 28 May 2018 00:00
Search period end: 07 June 2018 00:00
Orbit: 920 x 1202 km, 28.2° (Epoch: 27 May)

Date Brightness Start Highest point End Pass type
(mag) Time Alt. Az. Time Alt. Az. Time Alt. Az.
28 May - 01:13:43 10° SW 01:17:39 17° SSW 01:21:38 10° SSE visible
28 May - 20:27:45 10° SSW 20:31:58 18° SSE 20:36:03 10° ESE daylight
28 May - 22:19:26 10° SW 22:24:28 25° S 22:29:24 10° SE visible
29 May - 00:12:29 10° WSW 00:16:58 21° SSW 00:21:27 10° SE visible
29 May - 19:27:46 10° SSW 19:31:15 15° SSE 19:34:37 10° SE daylight
29 May - 21:18:41 10° SW 21:23:44 24° S 21:28:38 10° ESE daylight
29 May - 23:11:25 10° WSW 23:16:17 23° S 23:21:04 10° SE visible
30 May - 01:05:50 10° SW 01:08:40 13° SSW 01:11:30 10° S visible
30 May - 18:28:37 10° S 18:30:30 11° SSE 18:32:22 10° SE daylight
30 May - 20:18:04 10° SW 20:22:59 22° S 20:27:44 10° ESE daylight
30 May - 22:10:26 10° SW 22:15:34 25° S 22:20:33 10° SE visible
31 May - 00:04:06 10° SW 00:08:01 17° SSW 00:11:53 10° SSE visible
31 May - 19:17:35 10° SSW 19:22:14 19° SSE 19:26:41 10° ESE daylight
31 May - 21:09:30 10° SW 21:14:49 26° S 21:19:54 10° SE daylight
31 May - 23:02:45 10° WSW 23:07:20 21° SSW 23:11:49 10° SSE visible
01 Jun - 18:17:26 10° SSW 18:21:28 16° SSE 18:25:21 10° SE daylight
01 Jun - 20:08:39 10° SW 20:14:02 25° S 20:19:10 10° ESE daylight
01 Jun - 22:01:33 10° WSW 22:06:37 24° S 22:11:31 10° SE visible
01 Jun - 23:56:11 10° SW 23:59:00 13° SSW 00:01:47 10° S visible
02 Jun - 17:17:52 10° S 17:20:40 12° SSE 17:23:25 10° SE daylight
02 Jun - 19:07:54 10° SW 19:13:15 23° S 19:18:19 10° ESE daylight
02 Jun - 21:00:27 10° WSW 21:05:53 26° S 21:11:04 10° SE daylight
02 Jun - 22:54:18 10° WSW 22:58:21 17° SSW 23:02:19 10° SSE visible
03 Jun - 18:07:20 10° SSW 18:12:25 21° SSE 18:17:17 10° ESE daylight
03 Jun - 19:59:25 10° SW 20:05:06 27° S 20:10:27 10° SE daylight
03 Jun - 21:52:50 10° WSW 21:57:40 21° SSW 22:02:19 10° SSE visible
04 Jun - 17:07:02 10° SSW 17:11:36 17° SSE 17:15:58 10° ESE daylight
04 Jun - 18:58:28 10° SW 19:04:15 26° S 19:09:43 10° ESE daylight
04 Jun - 20:51:32 10° WSW 20:56:55 25° S 21:02:03 10° SE daylight
04 Jun - 22:46:17 10° SW 22:49:19 14° SSW 22:52:17 10° S visible
05 Jun - 16:07:15 10° S 16:10:45 14° SSE 16:14:10 10° SE daylight
05 Jun - 17:57:39 10° SW 18:03:24 25° S 18:08:51 10° ESE daylight
05 Jun - 19:50:20 10° WSW 19:56:07 27° S 20:01:36 10° SE daylight
05 Jun - 21:44:18 10° WSW 21:48:38 18° SSW 21:52:49 10° SSE visible
06 Jun - 16:57:00 10° SSW 17:02:31 22° SSE 17:07:47 10° ESE daylight
06 Jun - 18:49:13 10° SW 18:55:16 28° S 19:00:59 10° ESE daylight
06 Jun - 20:42:44 10° WSW 20:47:55 22° SSW 20:52:51 10° SE daylight
